Weather History for New Iberia, LA

Change the Weather History Date:

Wednesday, February 13, 2013

  Actual Average Record
Temperature  
Mean Temperature 54 °F 55 °F  
Max Temperature 61 °F 65 °F 81 °F (2000)
Min Temperature 47 °F 45 °F 21 °F (1958)
Degree Days  
Heating Degree Days 11 10  
Month to date heating degree days 43 147  
Since 1 July heating degree days 759 1084  
Cooling Degree Days 0 1  
Month to date cooling degree days 10 9  
Year to date cooling degree days 48 21  
Growing Degree Days 4 (Base 50)    
Moisture  
Dew Point 44 °F    
Average Humidity 66    
Maximum Humidity 80    
Minimum Humidity 51    
Precipitation  
Precipitation T in 0.16 in 2.32 in (2005)
Month to date precipitation 2.55 1.83  
Year to date precipitation 15.35 7.05  
Sea Level Pressure  
Sea Level Pressure 30.02 in    
Wind  
Wind Speed 9 mph (NNW)    
Max Wind Speed 22 mph    
Max Gust Speed 26 mph    
Visibility 10 miles    
Events Rain    
T = Trace of Precipitation, MM = Missing Value Source: NWS Daily Summary

Daily Weather History Graph

Daily Weather History Graph

Search for Another Location

Airport:

Trip Planner

Search our weather history database for the weather conditions in past years. The results will help you decide how hot, cold, wet, or windy it might be!

Date:

Astronomy

Feb. 13, 2013 Rise Set
Actual Time 6:48 AM CST 5:54 PM CST
Civil Twilight 6:24 AM CST 6:19 PM CST
Nautical Twilight 5:56 AM CST 6:47 PM CST
Astronomical Twilight 5:28 AM CST 7:15 PM CST
Moon 8:38 AM CST (2/13) 9:35 PM CST (2/13)
Length of Visible Light 11h 55m
Length of Day
11h 06m
Waxing Crescent, 14% of the Moon is Illuminated
Feb 13
Waxing Crescent
Feb 17
First Quarter
Feb 25
Full
Mar 4
Last Quarter
Mar 11
New

Hourly Weather History & Observations

Time (CST) Temp. Dew Point Humidity Pressure Visibility Wind Dir Wind Speed Gust Speed Precip Events Conditions
12:53 AM 57.0 °F 51.1 °F 81% 29.94 in 10.0 mi WNW 5.8 mph - N/A   Clear
1:53 AM 57.0 °F 51.1 °F 81% 29.96 in 10.0 mi West 5.8 mph - N/A   Clear
2:53 AM 57.0 °F 52.0 °F 83% 29.94 in 10.0 mi NW 5.8 mph - N/A   Scattered Clouds
3:53 AM 57.0 °F 50.0 °F 77% 29.94 in 10.0 mi NW 11.5 mph - N/A   Partly Cloudy
4:53 AM 55.9 °F 48.9 °F 77% 29.95 in 10.0 mi NW 12.7 mph - N/A   Clear
5:53 AM 55.0 °F 48.0 °F 77% 29.95 in 10.0 mi NW 10.4 mph 21.9 mph N/A   Partly Cloudy
6:53 AM 54.0 °F 46.9 °F 77% 30.02 in 10.0 mi WNW 13.8 mph - 0.00 in   Mostly Cloudy
7:53 AM 53.1 °F 45.0 °F 74% 30.04 in 10.0 mi NW 13.8 mph 23.0 mph 0.00 in Rain Light Rain
8:48 AM 51.8 °F 44.6 °F 76% 30.05 in 10.0 mi NW 19.6 mph 25.3 mph 0.00 in Rain Light Rain
8:53 AM 52.0 °F 44.1 °F 74% 30.04 in 10.0 mi NW 19.6 mph - 0.00 in   Overcast
9:09 AM 51.8 °F 44.6 °F 76% 30.04 in 10.0 mi NNW 13.8 mph - N/A   Overcast
9:53 AM 51.1 °F 41.0 °F 68% 30.04 in 10.0 mi NNW 11.5 mph - 0.00 in   Overcast
10:53 AM 51.1 °F 42.1 °F 71% 30.06 in 10.0 mi NNW 9.2 mph - 0.00 in Rain Light Rain
11:53 AM 53.1 °F 42.1 °F 66% 30.05 in 10.0 mi NNW 10.4 mph - 0.00 in   Clear
12:30 PM 53.6 °F 41.0 °F 62% 30.06 in 10.0 mi NNW 3.5 mph - N/A   Mostly Cloudy
12:53 PM 53.1 °F 41.0 °F 64% 30.03 in 10.0 mi North 8.1 mph - N/A   Scattered Clouds
1:29 PM 55.4 °F 42.8 °F 63% 30.01 in 10.0 mi North 9.2 mph - N/A   Mostly Cloudy
1:51 PM 55.4 °F 42.8 °F 63% 30.02 in 10.0 mi NNW 9.2 mph - N/A   Scattered Clouds
1:53 PM 55.9 °F 42.1 °F 60% 30.01 in 10.0 mi North 9.2 mph - N/A   Partly Cloudy
2:53 PM 59.0 °F 42.1 °F 53% 30.01 in 10.0 mi NNW 6.9 mph - N/A   Partly Cloudy
3:53 PM 60.1 °F 42.1 °F 51% 30.01 in 10.0 mi NNW 10.4 mph - N/A   Partly Cloudy
4:53 PM 59.0 °F 42.1 °F 53% 30.01 in 10.0 mi North 8.1 mph - N/A   Partly Cloudy
5:53 PM 55.0 °F 42.1 °F 62% 30.03 in 10.0 mi North 5.8 mph - N/A   Scattered Clouds
6:53 PM 52.0 °F 42.1 °F 69% 30.04 in 10.0 mi North 6.9 mph - N/A   Mostly Cloudy
7:53 PM 50.0 °F 41.0 °F 71% 30.06 in 10.0 mi North 8.1 mph - N/A   Clear
8:53 PM 48.0 °F 39.9 °F 74% 30.08 in 10.0 mi North 6.9 mph - N/A   Clear
9:53 PM 48.9 °F 39.9 °F 71% 30.09 in 10.0 mi NNE 9.2 mph - N/A   Clear
10:53 PM 48.0 °F 39.9 °F 74% 30.09 in 10.0 mi NE 6.9 mph - N/A   Clear
11:53 PM 46.9 °F 39.0 °F 74% 30.08 in 10.0 mi NE 5.8 mph - N/A   Clear